Regional Weather Roundup
Issued by NWS

Home | Current Version | Previous Version | Graphics & Text | Print | Product List | Glossary On
Versions: 1 2 3 4 5 6 7 8 9 10 11 12 13 14 15 16 17 18 19 20 21 22 23 24 25 26 27 28 29 30 31 32 33 34 35 36 37 38 39 40 41 42 43 44 45 46 47 48 49 50
000
ASUS45 KCYS 242310
RWRWY

WYOMING REGIONAL WEATHER ROUNDUP
NATIONAL WEATHER SERVICE CHEYENNE WY
500 PM MDT THU JUL 24 2014

NOTE:  "FAIR" INDICATES FEW OR NO CLOUDS BELOW 12,000 FEET
WITH NO SIGNIFICANT WEATHER AND/OR OBSTRUCTIONS TO VISIBILITY.

WYZ001-250000-
YELLOWSTONE NATIONAL PARK

CITY           SKY/WX    TMP DP  RH WIND       PRES   REMARKS
LK YELLOWSTONE   N/A     68  29  23 SW10G21   30.24F
W YELLOWSTONE  NOT AVBL

$$
WYZ002>013-054>058-071-098>099-250000-
NORTHERN WYOMING

CITY           SKY/WX    TMP DP  RH WIND       PRES   REMARKS
JACKSON        SUNNY     81  30  16 SW15G25   30.15S
CODY           NOT AVBL
GREYBULL       MOSUNNY  100  21   6 W35G44    29.78S HX  93
WORLAND        MOSUNNY   98  29   8 W23G32    29.81F HX  92
SHERIDAN       MOSUNNY   92  36  14 SW20G36   29.78R
BUFFALO        MOSUNNY   97  25   7 W29G43    29.87S HX  90
GILLETTE       PTSUNNY   99  36  11 SW18G26   29.78F HX  93
HULETT         FAIR      90  64  43 MISG      29.81  HX  91
NEWCASTLE      FAIR      95  30  10 W13G18    29.82

$$
WYZ014>020-022>026-101>103-250000-
CENTRAL WYOMING

CITY           SKY/WX    TMP DP  RH WIND       PRES   REMARKS
BIG PINEY      SUNNY     84  34  16 W16       30.17F
PINEDALE       CLEAR     81  32  17 NW22G29   30.17F
DUBOIS         FAIR      79  25  13 W17G25    30.15F
LANDER         MOSUNNY   94  29  10 W12G23    29.97F
RIVERTON       SUNNY     95  28   9 W18       29.96F
CASPER         PTSUNNY   94  40  15 SW21G29   29.95F HX  90
DOUGLAS        CLOUDY    91  44  19 W16       29.94F

$$
WYZ021-027>030-104>119-250000-
SOUTHERN WYOMING

CITY           SKY/WX    TMP DP  RH WIND       PRES   REMARKS
EVANSTON       MOSUNNY   85  38  18 W21G31    30.20F
KEMMERER       CLEAR     82  30  15 W20G36    30.20F
FORT BRIDGER   FAIR      89  33  13 W20G26    30.20F
ROCK SPRINGS   MOSUNNY   87  31  13 W22G35    30.13F
DIXON          FAIR      88  39  17 W13G20    30.18F
RAWLINS        MOSUNNY   87  35  15 SW16G31   30.15F
SARATOGA       FAIR      82  36  18 SW24G32   30.19F
LARAMIE        PTSUNNY   80  48  32 SW15      30.20F
CHEYENNE       PTSUNNY   84  46  26 W29G40    30.10F
TORRINGTON     PTSUNNY   95  46  18 W23G31    29.88F HX  91
PINE BLUFFS    FAIR      88  46  23 W15       30.01F

$$



USA.gov is the U.S. government's official web portal to all federal, state and local government web resources and services.